• In Netherlands
  • List of Countries
  • For 7 days
  • Water Temperature
  • Satellite Maps
  • Weather Map
  • Weather Widgets
  • user-avatar
    Login

    Hourly Weather Silistra

    Today, 24 September, Monday

    Time Temperature Precipitation Wind Pressure Humidity
    00:00 +19°C° 0 mm 3 mps 759 mmHg 83%
    01:00 +19°C° 0 mm 3 mps 758 mmHg 85%
    02:00 +19°C° 0 mm 3 mps 757 mmHg 87%
    03:00 +19°C° 0 mm 3 mps 757 mmHg 87%
    04:00 +19°C° 0 mm 3 mps 756 mmHg 88%
    05:00 +19°C° 0 mm 3 mps 756 mmHg 88%
    06:00 +20°C° 0 mm 4 mps 755 mmHg 80%
    07:00 +22°C° 0 mm 4 mps 755 mmHg 71%
    08:00 +23°C° 0 mm 5 mps 754 mmHg 63%
    09:00 +27°C° 0 mm 5 mps 754 mmHg 53%
    10:00 +29°C° 0 mm 5 mps 754 mmHg 43%
    11:00 +33°C° 0 mm 6 mps 753 mmHg 33%
    12:00 +34°C° 0 mm 6 mps 753 mmHg 31%
    13:00 +34°C° 0 mm 6 mps 752 mmHg 28%
    14:00 +35°C° 0 mm 7 mps 752 mmHg 26%
    15:00 +34°C° 0 mm 7 mps 752 mmHg 28%
    16:00 +33°C° 0 mm 7 mps 753 mmHg 31%
    17:00 +32°C° 0 mm 7 mps 753 mmHg 33%
    18:00 +27°C° 0.1 mm 7 mps 754 mmHg 43%
    19:00 +22°C° 0.1 mm 7 mps 756 mmHg 53%
    20:00 +17°C° 0.1 mm 7 mps 757 mmHg 63%
    21:00 +16°C° 0.5 mm 7 mps 758 mmHg 67%
    22:00 +15°C° 0.5 mm 6 mps 760 mmHg 71%
    23:00 +13°C° 0.5 mm 5 mps 761 mmHg 75%

    Tomorrow, 25 September, Tuesday

    Time Temperature Precipitation Wind Pressure Humidity
    00:00 +13°C° 0.2 mm 5 mps 761 mmHg 74%
    01:00 +13°C° 0.2 mm 4 mps 761 mmHg 73%
    02:00 +12°C° 0.2 mm 3 mps 762 mmHg 72%
    03:00 +13°C° 0.1 mm 2 mps 762 mmHg 72%
    04:00 +13°C° 0.1 mm 2 mps 762 mmHg 71%
    05:00 +13°C° 0.1 mm 2 mps 762 mmHg 70%
    06:00 +14°C° 0 mm 2 mps 763 mmHg 67%
    07:00 +14°C° 0 mm 2 mps 763 mmHg 64%
    08:00 +13°C° 0 mm 3 mps 764 mmHg 61%
    09:00 +14°C° 0 mm 3 mps 764 mmHg 55%
    10:00 +16°C° 0 mm 3 mps 764 mmHg 48%
    11:00 +17°C° 0 mm 3 mps 764 mmHg 42%
    12:00 +17°C° 0.1 mm 4 mps 764 mmHg 39%
    13:00 +18°C° 0.1 mm 4 mps 764 mmHg 37%
    14:00 +18°C° 0.1 mm 4 mps 764 mmHg 35%
    15:00 +18°C° 0 mm 4 mps 764 mmHg 33%
    16:00 +18°C° 0 mm 4 mps 764 mmHg 31%
    17:00 +17°C° 0 mm 4 mps 765 mmHg 30%
    18:00 +15°C° 0 mm 4 mps 765 mmHg 32%
    19:00 +14°C° 0 mm 3 mps 766 mmHg 35%
    20:00 +12°C° 0 mm 3 mps 767 mmHg 38%
    21:00 +12°C° 0 mm 3 mps 767 mmHg 40%
    22:00 +11°C° 0 mm 3 mps 768 mmHg 42%
    23:00 +10°C° 0 mm 2 mps 768 mmHg 43%

    Day after tomorrow, 26 September, Wednesday

    Time Temperature Precipitation Wind Pressure Humidity
    00:00 +10°C° 0 mm 3 mps 769 mmHg 45%
    01:00 +10°C° 0 mm 3 mps 769 mmHg 48%
    02:00 +9°C° 0 mm 3 mps 769 mmHg 50%
    03:00 +9°C° 0 mm 3 mps 769 mmHg 52%
    04:00 +8°C° 0 mm 3 mps 769 mmHg 55%
    05:00 +7°C° 0 mm 4 mps 770 mmHg 58%
    06:00 +8°C° 0 mm 5 mps 770 mmHg 55%
    07:00 +9°C° 0 mm 6 mps 770 mmHg 53%
    08:00 +10°C° 0 mm 6 mps 771 mmHg 51%
    09:00 +11°C° 0 mm 7 mps 771 mmHg 46%
    10:00 +12°C° 0 mm 7 mps 771 mmHg 41%
    11:00 +15°C° 0 mm 7 mps 771 mmHg 37%
    12:00 +15°C° 0 mm 7 mps 771 mmHg 34%
    13:00 +16°C° 0 mm 7 mps 770 mmHg 32%
    14:00 +16°C° 0 mm 7 mps 770 mmHg 30%
    15:00 +16°C° 0 mm 6 mps 770 mmHg 31%
    16:00 +15°C° 0 mm 6 mps 770 mmHg 31%
    17:00 +15°C° 0 mm 6 mps 770 mmHg 31%
    18:00 +13°C° 0 mm 5 mps 770 mmHg 35%
    19:00 +12°C° 0 mm 4 mps 770 mmHg 39%
    20:00 +10°C° 0 mm 3 mps 771 mmHg 42%
    21:00 +10°C° 0 mm 2 mps 771 mmHg 44%
    22:00 +9°C° 0 mm 2 mps 771 mmHg 46%
    23:00 +8°C° 0 mm 2 mps 771 mmHg 47%

    27 September, Thursday

    Time Temperature Precipitation Wind Pressure Humidity
    00:00 +8°C° 0 mm 2 mps 771 mmHg 48%
    01:00 +7°C° 0 mm 2 mps 771 mmHg 50%
    02:00 +8°C° 0 mm 1 mps 770 mmHg 51%
    03:00 +7°C° 0 mm 1 mps 770 mmHg 51%
    04:00 +7°C° 0 mm 1 mps 770 mmHg 52%
    05:00 +7°C° 0 mm 1 mps 770 mmHg 53%
    06:00 +8°C° 0 mm 1 mps 770 mmHg 49%
    07:00 +9°C° 0 mm 1 mps 770 mmHg 45%
    08:00 +11°C° 0 mm 1 mps 770 mmHg 41%
    09:00 +12°C° 0 mm 2 mps 769 mmHg 37%
    10:00 +14°C° 0 mm 2 mps 769 mmHg 33%
    11:00 +16°C° 0 mm 2 mps 769 mmHg 29%
    12:00 +17°C° 0 mm 2 mps 768 mmHg 27%
    13:00 +18°C° 0 mm 2 mps 768 mmHg 25%
    14:00 +19°C° 0 mm 2 mps 767 mmHg 23%
    15:00 +19°C° 0 mm 2 mps 766 mmHg 23%
    16:00 +19°C° 0 mm 2 mps 766 mmHg 23%
    17:00 +20°C° 0 mm 1 mps 766 mmHg 24%
    18:00 +18°C° 0 mm 1 mps 766 mmHg 27%
    19:00 +15°C° 0 mm 1 mps 766 mmHg 29%
    20:00 +14°C° 0 mm 1 mps 766 mmHg 32%
    21:00 +13°C° 0 mm 1 mps 766 mmHg 34%
    22:00 +13°C° 0 mm 1 mps 766 mmHg 35%
    23:00 +13°C° 0 mm 1 mps 766 mmHg 36%

    28 September, Friday

    Time Temperature Precipitation Wind Pressure Humidity
    00:00 +12°C° 0 mm 1 mps 765 mmHg 36%
    01:00 +12°C° 0 mm 1 mps 765 mmHg 37%
    02:00 +12°C° 0 mm 1 mps 765 mmHg 37%
    03:00 +12°C° 0 mm 1 mps 765 mmHg 37%
    04:00 +12°C° 0 mm 1 mps 764 mmHg 37%
    05:00 +11°C° 0 mm 1 mps 764 mmHg 36%
    06:00 +13°C° 0 mm 1 mps 764 mmHg 35%
    07:00 +14°C° 0 mm 1 mps 764 mmHg 33%
    08:00 +15°C° 0 mm 1 mps 764 mmHg 31%
    09:00 +18°C° 0 mm 1 mps 764 mmHg 29%
    10:00 +20°C° 0 mm 1 mps 764 mmHg 27%
    11:00 +22°C° 0 mm 1 mps 763 mmHg 25%
    12:00 +23°C° 0 mm 1 mps 763 mmHg 26%
    13:00 +24°C° 0 mm 1 mps 762 mmHg 27%
    14:00 +25°C° 0 mm 1 mps 761 mmHg 27%
    15:00 +24°C° 0 mm 1 mps 761 mmHg 29%
    16:00 +24°C° 0 mm 1 mps 760 mmHg 31%
    17:00 +24°C° 0 mm 1 mps 760 mmHg 32%
    18:00 +21°C° 0 mm 2 mps 760 mmHg 38%
    19:00 +19°C° 0 mm 2 mps 760 mmHg 44%
    20:00 +17°C° 0 mm 2 mps 760 mmHg 50%
    21:00 +16°C° 0 mm 2 mps 759 mmHg 55%
    22:00 +16°C° 0 mm 2 mps 759 mmHg 60%
    23:00 +15°C° 0 mm 2 mps 759 mmHg 65%

    29 September, Saturday

    Time Temperature Precipitation Wind Pressure Humidity
    00:00 +15°C° 0 mm 2 mps 759 mmHg 67%
    01:00 +14°C° 0 mm 2 mps 758 mmHg 69%
    02:00 +14°C° 0 mm 2 mps 758 mmHg 70%
    03:00 +14°C° 0 mm 2 mps 758 mmHg 71%
    04:00 +14°C° 0 mm 2 mps 757 mmHg 72%
    05:00 +13°C° 0 mm 2 mps 757 mmHg 72%
    06:00 +15°C° 0 mm 2 mps 757 mmHg 67%
    07:00 +16°C° 0 mm 2 mps 757 mmHg 62%
    08:00 +17°C° 0 mm 2 mps 757 mmHg 58%
    09:00 +19°C° 0 mm 2 mps 757 mmHg 51%
    10:00 +21°C° 0 mm 2 mps 756 mmHg 44%
    11:00 +24°C° 0 mm 2 mps 756 mmHg 37%
    12:00 +25°C° 0 mm 2 mps 756 mmHg 34%
    13:00 +26°C° 0 mm 2 mps 755 mmHg 31%
    14:00 +27°C° 0 mm 2 mps 755 mmHg 28%
    15:00 +26°C° 0 mm 1 mps 755 mmHg 30%
    16:00 +26°C° 0 mm 1 mps 755 mmHg 31%
    17:00 +25°C° 0 mm 1 mps 754 mmHg 33%
    18:00 +24°C° 0 mm 1 mps 755 mmHg 37%
    19:00 +22°C° 0 mm 1 mps 755 mmHg 42%
    20:00 +21°C° 0 mm 1 mps 755 mmHg 46%
    21:00 +19°C° 0 mm 3 mps 756 mmHg 53%
    22:00 +18°C° 0 mm 4 mps 756 mmHg 60%
    23:00 +16°C° 0 mm 5 mps 757 mmHg 67%
    Show more